Home > Time Zones > World Clock > Weather > Iran > Rasht > Past weeks

Flag Weather past 2 weeks in Rasht, Iran

Now
50 °F

Drizzle. Mostly cloudy.


Feels Like: 48 °F
Forecast: 42 / 51 °F
Wind: 5 mph from Northwest

Location: Rasht Airport

Current Time: Nov 28, 2014 at 4:05:42 PM

Latest Report: Nov 28, 2014 at 3:30 PM


Visibility: 1 mi

Pressure: 30.21 "Hg

Humidity: 100%

Dew point: 50 °F

Location of RashtLocation

Historic Weather in Rasht — Graph

°F

Rasht temperature yesterday

Maximum temperature yesterday: 54 °F (at 10:30 AM)
Minimum temperature yesterday: 46 °F (at 6:30 AM)
Average temperature yesterday: 51 °F

Past Weeks' High & Low Weather Summary

 TemperatureHumidityPressure
High63 °F (Nov 14, 1:30 PM)100% (Nov 13, 6:30 PM)30.39 "Hg (Nov 13, 6:30 PM)
Low43 °F (Nov 14, 6:30 AM)63% (Nov 13, 2:30 PM)29.74 "Hg (Nov 22, 4:30 PM)
Average54 °F92%30.17 "Hg
* Reported Nov 13 2:30 PM — Nov 28 3:00 PM, Rasht, Weather by CustomWeather, © 2014

Note: Actual official high and low records may vary slightly from our data, if they occured in-between our weather recording intervals... More about our weather records

Advertising

Rasht weather history for previous 24 hours

 ConditionsComfort  
Time TempWeatherWind HumidityBarometerVisibility
3:00 PM
Nov 28
50 °FDrizzle. Mostly cloudy.9 mph100%30.21 "Hg1 mi
2:30 PM50 °FDrizzle. Mostly cloudy.7 mph100%30.21 "Hg1 mi
2:00 PM50 °FFog.7 mph100%30.18 "Hg1 mi
1:30 PM50 °FFog.7 mph100%30.18 "Hg1 mi
1:00 PM50 °FFog.5 mph94%30.21 "Hg1 mi
12:30 PM50 °FDrizzle. Mostly cloudy.5 mph94%30.21 "Hg1 mi
12:00 PM50 °FDrizzle. Mostly cloudy.5 mph94%30.21 "Hg1 mi
11:30 AM50 °FDrizzle. Mostly cloudy.5 mph94%30.21 "Hg1 mi
11:00 AM50 °FDrizzle. Mostly cloudy.2 mph94%30.21 "Hg1 mi
10:30 AM50 °FFog.2 mph94%30.21 "Hg1 mi
10:00 AM48 °FDrizzle. Mostly cloudy.2 mph100%30.21 "Hg1 mi
9:30 AM48 °FDrizzle. Mostly cloudy.5 mph100%30.21 "Hg1 mi
9:00 AM48 °FDrizzle. Mostly cloudy.5 mph100%30.21 "Hg1 mi
8:30 AM48 °FDrizzle. Mostly cloudy.7 mph100%30.21 "Hg1 mi
8:00 AM48 °FDrizzle. Mostly cloudy.5 mph100%30.18 "Hg1 mi
7:30 AM48 °FLight rain. Mostly cloudy.5 mph100%30.18 "Hg1 mi
7:00 AM48 °FLight rain. Mostly cloudy.7 mph100%30.18 "Hg1 mi
6:30 AM48 °FLight rain. Mostly cloudy.7 mph100%30.18 "Hg1 mi
8:00 PM
Nov 27
50 °FMostly cloudy.5 mph94%30.15 "HgN/A
7:30 PM50 °FMostly cloudy.5 mph94%30.15 "HgN/A
7:00 PM50 °FMostly cloudy.5 mph94%30.15 "HgN/A
6:30 PM50 °FMostly cloudy.5 mph94%30.15 "HgN/A
6:00 PM52 °FPassing clouds.5 mph94%30.12 "HgN/A
5:30 PM52 °FPassing clouds.5 mph94%30.12 "HgN/A
5:00 PM54 °FBroken clouds.No wind82%30.12 "HgN/A
4:30 PM54 °FBroken clouds.No wind82%30.12 "HgN/A
4:00 PM54 °FBroken clouds.No wind82%30.12 "HgN/A
Weather by CustomWeather, © 2014

See weather overviewHow to use our weather pages